OPS 4682 DEB, 38443

Orbit data source: Space-Track

OPS 4682 DEB, 38443 is space debris in LEO originally from a launch on Sat, 03 Apr 1965 UTC launched from the Air Force Western Test Range (AFWTR). Debris objects in space refer to the collection of defunct objects orbiting the Earth. Examples of debris include non-operational satellites, rocket bodies, and fragments generated from explosions, collisions, or faulty payload assembly.

Loading next visibility...
Identifier
38443, 1965-027EY
Orbit
LEO
Country
Flag of USUS
Related business
Manufacturer
Unknown
Mission
Spacecraft
Bus & Motor
Unknown
Mass
Unknown
Launch date (UTC)
1965-04-03 (61 years ago)
Launch vehicle
Unknown
Launch site
Air Force Western Test Range (AFWTR)
Object type
Payload
Rocket body
Debris
Shape & HBR
Unknown shape, 0.1 m
Radar Cross Section
Medium (>0.1 m² and <1 m²)

Expand to show TLE details & history
Last TLE update: 1 week ago

TLE from 1 week ago
0 OPS 4682 DEB
1 38443U 65027EY  26143.36746025  .00000992  00000-0  32280-2 0  9998
2 38443  90.2361   2.5614 0028560 312.3227  47.5476 13.00896424548595
Epoch: 2026-05-23T08:49Z
TLE epoch observation values (Epoch: 2026-05-23T08:49:08.565Z)
Latitude
-0.00005°
Longitude
-10.70926°
Altitude
1,246.771 km
Speed
7.239 km/s
True Right ascension
00h 10m 14s
True Declination
0° 00' 00"
Sunlit
Object was in daylight at epoch
Visualization orbit readout
Latitude
Unknown
Longitude
Unknown
Altitude
Unknown
Speed
Unknown
Apparent Right ascension
Unknown
Apparent Declination
Unknown
Sunlit
N/A
Visualization observer readout
Local Sidereal Time
22:05:57
Azimuth
Unknown
Elevation
Unknown
Doppler factor
Unknown
Orbital elements
Apogee altitude
1,277.504 km
Perigee altitude
1,233.9 km
Semi-major axis
7,633.839 km
Eccentricity
0.00286
Inclination
90.2361°
RAAN
2.5614°
Arg. of periapsis
312.3227°
True anomaly
47.78966°
Mean anomaly
47.5476°
Eccentric anomaly
47.66857°
Mean motion
3.25408 °/min
Orbital period
110.63 mins
BSTAR
0.003228
Loading maneuver chart data...
Computing Atmospheric mass density...
Loading historical data...
Loading historical data...
Loading historical data...
Loading historical data...
Loading historical data...
Loading historical data...
Loading historical data...

Documentation

Showing up to 5 results
|